Left ArrowRight Arrow

31.31129, -92.44514

Hourly Observations for October 29, 2022

Temp ( °F °C ) Dew Point ( °F °C ) Humidity (%) Winds ( mph kmh ) Pressure ( in mb ) Visibility ( mi km ) Precip ( " mm )
12:26 am 00:26 Cloudy 66 18.9 59 15 78 78 E 12 19 30.00 1016 10 16 0.00 0.00
12:48 am 00:48 Cloudy 66 19 59 15 78 78 E 10 17 30.00 1016 10 16 0.00 0.00
12:53 am 00:53 Cloudy 66 18.9 59 15 78 78 E 13 20 30.00 1016 10 16 0.00 0.00
1:53 am 01:53 Cloudy with Light Rain 64 17.8 60 15.6 87 87 E 9 15 29.98 1015 7 11 0.05 1.27
2:53 am 02:53 Cloudy with Light Rain 64 17.8 60 15.6 87 87 E 7 11 29.96 1015 10 16 0.01 0.13
3:25 am 03:25 Cloudy with Rain 64 17.8 60 15.6 87 87 E 6 9 29.94 1014 6 10 0.02 0.51
3:53 am 03:53 Cloudy with Heavy Rain 64 17.8 61 16.1 90 90 E 7 11 29.94 1014 2 3 0.17 4.32
4:01 am 04:01 Cloudy with Light Rain 64 17.8 61 16.1 90 90 E 6 9 29.93 1013 3 5 0.01 0.25
4:53 am 04:53 Cloudy 64 17.8 61 16.1 90 90 E 6 9 29.92 1013 8 13 0.02 0.51
5:07 am 05:07 Cloudy with Light Rain 64 17.8 61 16.1 90 90 E 7 11 29.91 1013 7 11 0.01 0.13
5:53 am 05:53 Cloudy 65 18.3 62 16.7 90 90 SE 10 17 29.89 1012 9 14 0.01 0.13
6:29 am 06:29 Cloudy 67 19.4 63 17.2 87 87 ESE 12 19 29.87 1011 8 13 0.01 0.13
6:53 am 06:53 Cloudy with Light Rain 68 20 64 17.8 87 87 SE 13 20 29.88 1012 7 11 0.01 0.13
7:48 am 07:48 Cloudy with Light Rain 68 20 64 18 88 88 SSE 10 17 29.88 1012 5 8 0.04 1.02
7:53 am 07:53 Cloudy with Mist and Fog 68 20 65 18.3 90 90 SSE 8 13 29.89 1012 6 10 0.04 1.02
8:53 am 08:53 Cloudy with Mist and Fog 69 20.6 66 18.9 90 90 SSE 8 13 29.91 1013 5 8 0.01 0.13
9:03 am 09:03 Cloudy with Mist and Fog 69 20.6 66 18.9 90 90 S 6 9 29.91 1013 6 10 0.00 0.00
9:25 am 09:25 Cloudy 71 21.7 68 20 90 90 S 8 13 29.91 1013 7 11 0.00 0.00
9:38 am 09:38 Cloudy 72 22.2 68 20 87 87 S 8 13 29.91 1013 8 13 0.00 0.00
9:53 am 09:53 Mostly Cloudy 73 22.8 68 20 84 84 SSW 10 17 29.92 1013 8 13 0.00 0.00
10:27 am 10:27 Mostly Cloudy 72 22.2 66 18.9 82 82 SW 9 15 29.93 1013 10 16 0.00 0.00
10:53 am 10:53 Cloudy 72 22.2 65 18.3 79 79 WSW 10 17 29.94 1014 10 16 0.00 0.00
11:17 am 11:17 Partly Cloudy 74 23.3 64 17.8 71 71 SW 12 19 29.93 1013 10 16 0.00 0.00
11:53 am 11:53 Partly Cloudy 75 23.9 63 17.2 66 66 WSW 14 22 29.94 1014 10 16 0.00 0.00
12:53 pm 12:53 Sunny 76 24.4 60 15.6 58 58 SW 14 22 29.91 1013 10 16 0.00 0.00
1:53 pm 13:53 Sunny 77 25 60 15.6 56 56 WSW 13 20 29.88 1012 10 16 0.00 0.00
2:53 pm 14:53 Mostly Cloudy 75 23.9 59 15 57 57 WSW 12 19 29.88 1012 10 16 0.00 0.00
3:45 pm 15:45 Mostly Cloudy 73 22.8 60 15.6 64 64 WSW 16 26 29.89 1012 10 16 0.00 0.00
3:53 pm 15:53 Mostly Cloudy 72 22.2 60 15.6 66 66 WSW 17 28 29.90 1013 10 16 0.00 0.00
4:16 pm 16:16 Mostly Cloudy 70 21.1 58 14.4 66 66 WSW 17 28 29.91 1013 10 16 0.00 0.00
4:53 pm 16:53 Mostly Cloudy 69 20.6 57 13.9 65 65 WSW 13 20 29.92 1013 10 16 0.00 0.00
5:01 pm 17:01 Partly Cloudy 69 20.6 57 13.9 65 65 WSW 9 15 29.90 1012 10 16 0.00 0.00
5:53 pm 17:53 Cloudy 68 20 57 13.9 68 68 WSW 12 19 29.93 1013 10 16 0.00 0.00
6:53 pm 18:53 Partly Cloudy 65 18.3 58 14.4 78 78 WSW 7 11 29.93 1014 10 16 0.00 0.00
7:53 pm 19:53 Mostly Clear 63 17.2 58 14.4 84 84 WSW 5 7 29.95 1014 10 16 0.00 0.00
8:06 pm 20:06 Mostly Cloudy 63 17.2 58 14.4 84 84 WSW 5 7 29.94 1014 10 16 0.00 0.00
8:17 pm 20:17 Partly Cloudy 63 17.2 58 14.4 84 84 WSW 6 9 29.94 1014 10 16 0.00 0.00
8:26 pm 20:26 Mostly Cloudy 63 17.2 58 14.4 84 84 SW 5 7 29.94 1014 10 16 0.00 0.00
8:39 pm 20:39 Partly Cloudy 63 17.2 58 14.4 84 84 SSW 3 6 29.94 1014 10 16 0.00 0.00
8:53 pm 20:53 Mostly Clear 62 16.7 57 13.9 84 84 Calm 29.96 1014 10 16 0.00 0.00
9:12 pm 21:12 Mostly Cloudy 61 16.1 57 13.9 87 87 Calm 29.95 1014 10 16 0.00 0.00
9:53 pm 21:53 Mostly Cloudy 62 16.7 58 14.4 86 86 SSW 5 7 29.96 1015 9 14 0.00 0.00
10:00 pm 22:00 Partly Cloudy 62 16.7 58 14.4 86 86 SW 5 7 29.95 1014 9 14 0.00 0.00
10:12 pm 22:12 Mostly Cloudy 62 16.7 58 14.4 86 86 WSW 6 9 29.95 1014 9 14 0.00 0.00
10:53 pm 22:53 Cloudy 63 17.2 59 15 87 87 WSW 6 9 29.95 1014 10 16 0.00 0.00
11:53 pm 23:53 Cloudy 63 17.2 59 15 87 87 WSW 5 7 29.95 1014 9 14 0.00 0.00

Powered by Vaisala Xweather